Year,Month,Day,Hour,Minute,Value (Times are PST for temperature in C)
2011,11,18,00,00,1.80
2011,11,18,00,01,1.80
2011,11,18,00,02,1.80
2011,11,18,00,03,1.70
2011,11,18,00,04,1.70
2011,11,18,00,05,1.70
2011,11,18,00,06,1.70
2011,11,18,00,07,1.70
2011,11,18,00,08,1.70
2011,11,18,00,09,1.60
2011,11,18,00,10,1.60
2011,11,18,00,11,1.60
2011,11,18,00,12,1.60
2011,11,18,00,13,1.60
2011,11,18,00,14,1.50
2011,11,18,00,15,1.50
2011,11,18,00,16,1.40
2011,11,18,00,17,1.40
2011,11,18,00,18,1.40
2011,11,18,00,19,1.40
2011,11,18,00,20,1.30
2011,11,18,00,21,1.30
2011,11,18,00,22,1.30
2011,11,18,00,23,1.30
2011,11,18,00,24,1.30
2011,11,18,00,25,1.30
2011,11,18,00,26,1.30
2011,11,18,00,27,1.30
2011,11,18,00,28,1.30
2011,11,18,00,29,1.30
2011,11,18,00,30,1.30
2011,11,18,00,31,1.30
2011,11,18,00,32,1.30
2011,11,18,00,33,1.30
2011,11,18,00,34,1.30
2011,11,18,00,35,1.20
2011,11,18,00,36,1.20
2011,11,18,00,37,1.20
2011,11,18,00,38,1.20
2011,11,18,00,39,1.10
2011,11,18,00,40,1.10
2011,11,18,00,41,1.10
2011,11,18,00,42,1.10
2011,11,18,00,43,1.10
2011,11,18,00,44,1.10
2011,11,18,00,45,1.10
2011,11,18,00,46,1.10
2011,11,18,00,47,1.10
2011,11,18,00,48,1.10
2011,11,18,00,49,1.10
2011,11,18,00,50,1.10
2011,11,18,00,51,1.10
2011,11,18,00,52,1.10
2011,11,18,00,53,1.10
2011,11,18,00,54,1.10
2011,11,18,00,55,1.10
2011,11,18,00,56,1.10
2011,11,18,00,57,1.00
2011,11,18,00,58,1.00
2011,11,18,00,59,1.00
2011,11,18,01,00,0.90
2011,11,18,01,01,0.90
2011,11,18,01,02,0.90
2011,11,18,01,03,0.80
2011,11,18,01,04,0.80
2011,11,18,01,05,0.80
2011,11,18,01,06,0.80
2011,11,18,01,07,0.80
2011,11,18,01,08,0.80
2011,11,18,01,09,0.80
2011,11,18,01,10,0.70
2011,11,18,01,11,0.70
2011,11,18,01,12,0.70
2011,11,18,01,13,0.70
2011,11,18,01,14,0.70
2011,11,18,01,15,0.80
2011,11,18,01,16,0.80
2011,11,18,01,17,0.80
2011,11,18,01,18,0.80
2011,11,18,01,19,0.70
2011,11,18,01,20,0.70
2011,11,18,01,21,0.70
2011,11,18,01,22,0.70
2011,11,18,01,23,0.70
2011,11,18,01,24,0.70
2011,11,18,01,25,0.80
2011,11,18,01,26,0.80
2011,11,18,01,27,0.80
2011,11,18,01,28,0.80
2011,11,18,01,29,0.80
2011,11,18,01,30,0.80
2011,11,18,01,31,0.80
2011,11,18,01,32,0.80
2011,11,18,01,33,0.80
2011,11,18,01,34,0.80
2011,11,18,01,35,0.80
2011,11,18,01,36,0.80
2011,11,18,01,37,0.80
2011,11,18,01,38,0.80
2011,11,18,01,39,0.80
2011,11,18,01,40,0.80
2011,11,18,01,41,0.80
2011,11,18,01,42,0.80
2011,11,18,01,43,0.80
2011,11,18,01,44,0.80
2011,11,18,01,45,0.80
2011,11,18,01,46,0.80
2011,11,18,01,47,0.80
2011,11,18,01,48,0.80
2011,11,18,01,49,0.80
2011,11,18,01,50,0.80
2011,11,18,01,51,0.80
2011,11,18,01,52,0.80
2011,11,18,01,53,0.80
2011,11,18,01,54,0.90
2011,11,18,01,55,0.90
2011,11,18,01,56,0.90
2011,11,18,01,57,0.90
2011,11,18,01,58,0.90
2011,11,18,01,59,0.90
2011,11,18,02,00,0.90
2011,11,18,02,01,0.90
2011,11,18,02,02,0.90
2011,11,18,02,03,0.90
2011,11,18,02,04,0.90
2011,11,18,02,05,0.90
2011,11,18,02,06,0.90
2011,11,18,02,07,0.90
2011,11,18,02,08,0.90
2011,11,18,02,09,0.90
2011,11,18,02,10,0.90
2011,11,18,02,11,0.90
2011,11,18,02,12,0.90
2011,11,18,02,13,0.90
2011,11,18,02,14,0.90
2011,11,18,02,15,0.90
2011,11,18,02,16,0.90
2011,11,18,02,17,0.90
2011,11,18,02,18,0.90
2011,11,18,02,19,0.90
2011,11,18,02,20,0.90
2011,11,18,02,21,0.90
2011,11,18,02,22,0.90
2011,11,18,02,23,0.90
2011,11,18,02,24,0.90
2011,11,18,02,25,0.90
2011,11,18,02,26,0.90
2011,11,18,02,27,0.90
2011,11,18,02,28,1.00
2011,11,18,02,29,1.00
2011,11,18,02,30,1.00
2011,11,18,02,31,1.00
2011,11,18,02,32,1.00
2011,11,18,02,33,0.90
2011,11,18,02,34,0.90
2011,11,18,02,35,0.90
2011,11,18,02,36,0.90
2011,11,18,02,37,0.90
2011,11,18,02,38,0.90
2011,11,18,02,39,0.80
2011,11,18,02,40,0.80
2011,11,18,02,41,0.80
2011,11,18,02,42,0.80
2011,11,18,02,43,0.80
2011,11,18,02,44,0.70
2011,11,18,02,45,0.70
2011,11,18,02,46,0.70
2011,11,18,02,47,0.70
2011,11,18,02,48,0.70
2011,11,18,02,49,0.60
2011,11,18,02,50,0.60
2011,11,18,02,51,0.60
2011,11,18,02,52,0.70
2011,11,18,02,53,0.70
2011,11,18,02,54,0.60
2011,11,18,02,55,0.60
2011,11,18,02,56,0.60
2011,11,18,02,57,0.50
2011,11,18,02,58,0.50
2011,11,18,02,59,0.50
2011,11,18,03,00,0.40
2011,11,18,03,01,0.40
2011,11,18,03,02,0.40
2011,11,18,03,03,0.30
2011,11,18,03,04,0.30
2011,11,18,03,05,0.30
2011,11,18,03,06,0.30
2011,11,18,03,07,0.30
2011,11,18,03,08,0.30
2011,11,18,03,09,0.30
2011,11,18,03,10,0.30
2011,11,18,03,11,0.30
2011,11,18,03,12,0.30
2011,11,18,03,13,0.30
2011,11,18,03,14,0.40
2011,11,18,03,15,0.40
2011,11,18,03,16,0.30
2011,11,18,03,17,0.30
2011,11,18,03,18,0.30
2011,11,18,03,19,0.30
2011,11,18,03,20,0.30
2011,11,18,03,21,0.30
2011,11,18,03,22,0.30
2011,11,18,03,23,0.30
2011,11,18,03,24,0.30
2011,11,18,03,25,0.30
2011,11,18,03,26,0.30
2011,11,18,03,27,0.30
2011,11,18,03,28,0.30
2011,11,18,03,29,0.30
2011,11,18,03,30,0.30
2011,11,18,03,31,0.30
2011,11,18,03,32,0.30
2011,11,18,03,33,0.40
2011,11,18,03,34,0.40
2011,11,18,03,35,0.40
2011,11,18,03,36,0.40
2011,11,18,03,37,0.40
2011,11,18,03,38,0.40
2011,11,18,03,39,0.40
2011,11,18,03,40,0.40
2011,11,18,03,41,0.40
2011,11,18,03,42,0.50
2011,11,18,03,43,0.50
2011,11,18,03,44,0.50
2011,11,18,03,45,0.50
2011,11,18,03,46,0.50
2011,11,18,03,47,0.60
2011,11,18,03,48,0.60
2011,11,18,03,49,0.60
2011,11,18,03,50,0.60
2011,11,18,03,51,0.60
2011,11,18,03,52,0.60
2011,11,18,03,53,0.60
2011,11,18,03,54,0.50
2011,11,18,03,55,0.50
2011,11,18,03,56,0.50
2011,11,18,03,57,0.40
2011,11,18,03,58,0.40
2011,11,18,03,59,0.40
2011,11,18,04,00,0.30
2011,11,18,04,01,0.30
2011,11,18,04,02,0.30
2011,11,18,04,03,0.20
2011,11,18,04,04,0.20
2011,11,18,04,05,0.20
2011,11,18,04,06,0.10
2011,11,18,04,07,0.10
2011,11,18,04,08,0.10
2011,11,18,04,09,0.10
2011,11,18,04,10,0.00
2011,11,18,04,11,0.00
2011,11,18,04,12,0.00
2011,11,18,04,13,-0.10
2011,11,18,04,14,-0.10
2011,11,18,04,15,-0.10
2011,11,18,04,16,-0.10
2011,11,18,04,17,-0.10
2011,11,18,04,18,-0.20
2011,11,18,04,19,-0.20
2011,11,18,04,20,-0.20
2011,11,18,04,21,-0.20
2011,11,18,04,22,-0.20
2011,11,18,04,23,-0.20
2011,11,18,04,24,-0.20
2011,11,18,04,25,-0.20
2011,11,18,04,26,-0.30
2011,11,18,04,27,-0.30
2011,11,18,04,28,-0.30
2011,11,18,04,29,-0.30
2011,11,18,04,30,-0.30
2011,11,18,04,31,-0.30
2011,11,18,04,32,-0.30
2011,11,18,04,33,-0.40
2011,11,18,04,34,-0.40
2011,11,18,04,35,-0.40
2011,11,18,04,36,-0.40
2011,11,18,04,37,-0.40
2011,11,18,04,38,-0.40
2011,11,18,04,39,-0.40
2011,11,18,04,40,-0.40
2011,11,18,04,41,-0.40
2011,11,18,04,42,-0.50
2011,11,18,04,43,-0.50
2011,11,18,04,44,-0.50
2011,11,18,04,45,-0.50
2011,11,18,04,46,-0.50
2011,11,18,04,47,-0.60
2011,11,18,04,48,-0.60
2011,11,18,04,49,-0.60
2011,11,18,04,50,-0.60
2011,11,18,04,51,-0.70
2011,11,18,04,52,-0.70
2011,11,18,04,53,-0.70
2011,11,18,04,54,-0.70
2011,11,18,04,55,-0.70
2011,11,18,04,56,-0.60
2011,11,18,04,57,-0.60
2011,11,18,04,58,-0.60
2011,11,18,04,59,-0.60
2011,11,18,05,00,-0.50
2011,11,18,05,01,-0.50
2011,11,18,05,02,-0.40
2011,11,18,05,03,-0.40
2011,11,18,05,04,-0.40
2011,11,18,05,05,-0.30
2011,11,18,05,06,-0.30
2011,11,18,05,07,-0.30
2011,11,18,05,08,-0.30
2011,11,18,05,09,-0.30
2011,11,18,05,10,-0.30
2011,11,18,05,11,-0.30
2011,11,18,05,12,-0.30
2011,11,18,05,13,-0.30
2011,11,18,05,14,-0.30
2011,11,18,05,15,-0.40
2011,11,18,05,16,-0.40
2011,11,18,05,17,-0.40
2011,11,18,05,18,-0.50
2011,11,18,05,19,-0.50
2011,11,18,05,20,-0.60
2011,11,18,05,21,-0.60
2011,11,18,05,22,-0.60
2011,11,18,05,23,-0.60
2011,11,18,05,24,-0.70
2011,11,18,05,25,-0.70
2011,11,18,05,26,-0.70
2011,11,18,05,27,-0.70
2011,11,18,05,28,-0.70
2011,11,18,05,29,-0.70
2011,11,18,05,30,-0.70
2011,11,18,05,31,-0.70
2011,11,18,05,32,-0.70
2011,11,18,05,33,-0.60
2011,11,18,05,34,-0.60
2011,11,18,05,35,-0.50
2011,11,18,05,36,-0.40
2011,11,18,05,37,-0.40
2011,11,18,05,38,-0.30
2011,11,18,05,39,-0.30
2011,11,18,05,40,-0.20
2011,11,18,05,41,-0.20
2011,11,18,05,42,-0.20
2011,11,18,05,43,-0.20
2011,11,18,05,44,-0.30
2011,11,18,05,45,-0.30
2011,11,18,05,46,-0.40
2011,11,18,05,47,-0.40
2011,11,18,05,48,-0.50
2011,11,18,05,49,-0.50
2011,11,18,05,50,-0.50
2011,11,18,05,51,-0.60
2011,11,18,05,52,-0.60
2011,11,18,05,53,-0.60
2011,11,18,05,54,-0.70
2011,11,18,05,55,-0.70
2011,11,18,05,56,-0.70
2011,11,18,05,57,-0.70
2011,11,18,05,58,-0.70
2011,11,18,05,59,-0.70
2011,11,18,06,00,-0.80
2011,11,18,06,01,-0.80
2011,11,18,06,02,-0.80
2011,11,18,06,03,-0.80
2011,11,18,06,04,-0.70
2011,11,18,06,05,-0.70
2011,11,18,06,06,-0.70
2011,11,18,06,07,-0.70
2011,11,18,06,08,-0.70
2011,11,18,06,09,-0.70
2011,11,18,06,10,-0.70
2011,11,18,06,11,-0.70
2011,11,18,06,12,-0.70
2011,11,18,06,13,-0.70
2011,11,18,06,14,-0.70
2011,11,18,06,15,-0.70
2011,11,18,06,16,-0.70
2011,11,18,06,17,-0.70
2011,11,18,06,18,-0.70
2011,11,18,06,19,-0.70
2011,11,18,06,20,-0.80
2011,11,18,06,21,-0.80
2011,11,18,06,22,-0.80
2011,11,18,06,23,-0.80
2011,11,18,06,24,-0.80
2011,11,18,06,25,-0.80
2011,11,18,06,26,-0.80
2011,11,18,06,27,-0.80
2011,11,18,06,28,-0.80
2011,11,18,06,29,-0.80
2011,11,18,06,30,-0.80
2011,11,18,06,31,-0.90
2011,11,18,06,32,-0.90
2011,11,18,06,33,-0.90
2011,11,18,06,34,-0.90
2011,11,18,06,35,-0.90
2011,11,18,06,36,-0.90
2011,11,18,06,37,-0.90
2011,11,18,06,38,-1.00
2011,11,18,06,39,-1.00
2011,11,18,06,40,-1.10
2011,11,18,06,41,-1.10
2011,11,18,06,42,-1.10
2011,11,18,06,43,-1.10
2011,11,18,06,44,-1.10
2011,11,18,06,45,-1.10
2011,11,18,06,46,-1.10
2011,11,18,06,47,-1.10
2011,11,18,06,48,-1.10
2011,11,18,06,49,-1.10
2011,11,18,06,50,-1.10
2011,11,18,06,51,-1.10
2011,11,18,06,52,-1.20
2011,11,18,06,53,-1.10
2011,11,18,06,54,-1.10
2011,11,18,06,55,-1.10
2011,11,18,06,56,-1.10
2011,11,18,06,57,-1.10
2011,11,18,06,58,-1.10
2011,11,18,06,59,-1.10
2011,11,18,07,00,-1.10
2011,11,18,07,01,-1.10
2011,11,18,07,02,-1.10
2011,11,18,07,03,-1.10
2011,11,18,07,04,-1.10
2011,11,18,07,05,-1.10
2011,11,18,07,06,-1.10
2011,11,18,07,07,-1.10
2011,11,18,07,08,-1.20
2011,11,18,07,09,-1.20
2011,11,18,07,10,-1.20
2011,11,18,07,11,-1.20
2011,11,18,07,12,-1.20
2011,11,18,07,13,-1.20
2011,11,18,07,14,-1.20
2011,11,18,07,15,-1.20
2011,11,18,07,16,-1.20
2011,11,18,07,17,-1.20
2011,11,18,07,18,-1.20
2011,11,18,07,19,-1.20
2011,11,18,07,20,-1.20
2011,11,18,07,21,-1.20
2011,11,18,07,22,-1.20
2011,11,18,07,23,-1.20
2011,11,18,07,24,-1.20
2011,11,18,07,25,-1.20
2011,11,18,07,26,-1.20
2011,11,18,07,27,-1.30
2011,11,18,07,28,-1.30
2011,11,18,07,29,-1.30
2011,11,18,07,30,-1.30
2011,11,18,07,31,-1.30
2011,11,18,07,32,-1.20
2011,11,18,07,33,-1.20
2011,11,18,07,34,-1.20
2011,11,18,07,35,-1.20
2011,11,18,07,36,-1.20
2011,11,18,07,37,-1.20
2011,11,18,07,38,-1.20
2011,11,18,07,39,-1.20
2011,11,18,07,40,-1.10
2011,11,18,07,41,-1.10
2011,11,18,07,42,-1.20
2011,11,18,07,43,-1.20
2011,11,18,07,44,-1.10
2011,11,18,07,45,-1.10
2011,11,18,07,46,-1.10
2011,11,18,07,47,-1.10
2011,11,18,07,48,-1.10
2011,11,18,07,49,-1.10
2011,11,18,07,50,-1.10
2011,11,18,07,51,-1.10
2011,11,18,07,52,-1.10
2011,11,18,07,53,-1.00
2011,11,18,07,54,-1.00
2011,11,18,07,55,-1.00
2011,11,18,07,56,-0.90
2011,11,18,07,57,-0.90
2011,11,18,07,58,-0.90
2011,11,18,07,59,-0.90
2011,11,18,08,00,-0.80
2011,11,18,08,01,-0.80
2011,11,18,08,02,-0.80
2011,11,18,08,03,-0.80
2011,11,18,08,04,-0.80
2011,11,18,08,05,-0.80
2011,11,18,08,06,-0.70
2011,11,18,08,07,-0.70
2011,11,18,08,08,-0.70
2011,11,18,08,09,-0.70
2011,11,18,08,10,-0.70
2011,11,18,08,11,-0.70
2011,11,18,08,12,-0.70
2011,11,18,08,13,-0.70
2011,11,18,08,14,-0.70
2011,11,18,08,15,-0.70
2011,11,18,08,16,-0.60
2011,11,18,08,17,-0.60
2011,11,18,08,18,-0.50
2011,11,18,08,19,-0.50
2011,11,18,08,20,-0.40
2011,11,18,08,21,-0.30
2011,11,18,08,22,-0.30
2011,11,18,08,23,-0.20
2011,11,18,08,24,-0.20
2011,11,18,08,25,-0.10
2011,11,18,08,26,-0.10
2011,11,18,08,27,0.00
2011,11,18,08,28,0.00
2011,11,18,08,29,0.10
2011,11,18,08,30,0.10
2011,11,18,08,31,0.10
2011,11,18,08,32,0.10
2011,11,18,08,33,0.10
2011,11,18,08,34,0.10
2011,11,18,08,35,0.10
2011,11,18,08,36,0.10
2011,11,18,08,37,0.10
2011,11,18,08,38,0.10
2011,11,18,08,39,0.10
2011,11,18,08,40,0.20
2011,11,18,08,41,0.20
2011,11,18,08,42,0.20
2011,11,18,08,43,0.20
2011,11,18,08,44,0.20
2011,11,18,08,45,0.20
2011,11,18,08,46,0.30
2011,11,18,08,47,0.30
2011,11,18,08,48,0.30
2011,11,18,08,49,0.40
2011,11,18,08,50,0.40
2011,11,18,08,51,0.40
2011,11,18,08,52,0.50
2011,11,18,08,53,0.50
2011,11,18,08,54,0.50
2011,11,18,08,55,0.50
2011,11,18,08,56,0.60
2011,11,18,08,57,0.60
2011,11,18,08,58,0.60
2011,11,18,08,59,0.60
2011,11,18,09,00,0.60
2011,11,18,09,01,0.70
2011,11,18,09,02,0.70
2011,11,18,09,03,0.70
2011,11,18,09,04,0.70
2011,11,18,09,05,0.80
2011,11,18,09,06,0.80
2011,11,18,09,07,0.80
2011,11,18,09,08,0.80
2011,11,18,09,09,0.80
2011,11,18,09,10,0.80
2011,11,18,09,11,0.80
2011,11,18,09,12,0.90
2011,11,18,09,13,0.90
2011,11,18,09,14,0.90
2011,11,18,09,15,1.00
2011,11,18,09,16,1.00
2011,11,18,09,17,1.10
2011,11,18,09,18,1.10
2011,11,18,09,19,1.20
2011,11,18,09,20,1.20
2011,11,18,09,21,1.20
2011,11,18,09,22,1.30
2011,11,18,09,23,1.30
2011,11,18,09,24,1.30
2011,11,18,09,25,1.30
2011,11,18,09,26,1.30
2011,11,18,09,27,1.30
2011,11,18,09,28,1.40
2011,11,18,09,29,1.50
2011,11,18,09,30,1.50
2011,11,18,09,31,1.60
2011,11,18,09,32,1.60
2011,11,18,09,33,1.60
2011,11,18,09,34,1.70
2011,11,18,09,35,1.70
2011,11,18,09,36,1.70
2011,11,18,09,37,1.70
2011,11,18,09,38,1.70
2011,11,18,09,39,1.70
2011,11,18,09,40,1.80
2011,11,18,09,41,1.80
2011,11,18,09,42,1.80
2011,11,18,09,43,1.80
2011,11,18,09,44,1.80
2011,11,18,09,45,1.90
2011,11,18,09,46,1.90
2011,11,18,09,47,1.90
2011,11,18,09,48,2.00
2011,11,18,09,49,2.00
2011,11,18,09,50,2.00
2011,11,18,09,51,2.10
2011,11,18,09,52,2.10
2011,11,18,09,53,2.20
2011,11,18,09,54,2.20
2011,11,18,09,55,2.20
2011,11,18,09,56,2.20
2011,11,18,09,57,2.20
2011,11,18,09,58,2.30
2011,11,18,09,59,2.30
2011,11,18,10,00,2.30
2011,11,18,10,01,2.40
2011,11,18,10,02,2.40
2011,11,18,10,03,2.40
2011,11,18,10,04,2.50
2011,11,18,10,05,2.50
2011,11,18,10,06,2.50
2011,11,18,10,07,2.60
2011,11,18,10,08,2.60
2011,11,18,10,09,2.60
2011,11,18,10,10,2.70
2011,11,18,10,11,2.70
2011,11,18,10,12,2.70
2011,11,18,10,13,2.80
2011,11,18,10,14,2.80
2011,11,18,10,15,2.80
2011,11,18,10,16,2.80
2011,11,18,10,17,2.80
2011,11,18,10,18,2.90
2011,11,18,10,19,2.90
2011,11,18,10,20,2.90
2011,11,18,10,21,3.00
2011,11,18,10,22,3.00
2011,11,18,10,23,3.00
2011,11,18,10,24,3.10
2011,11,18,10,25,3.10
2011,11,18,10,26,3.10
2011,11,18,10,27,3.20
2011,11,18,10,28,3.20
2011,11,18,10,29,3.20
2011,11,18,10,30,3.20
2011,11,18,10,31,3.20
2011,11,18,10,32,3.20
2011,11,18,10,33,3.30
2011,11,18,10,34,3.30
2011,11,18,10,35,3.30
2011,11,18,10,36,3.30
2011,11,18,10,37,3.30
2011,11,18,10,38,3.40
2011,11,18,10,39,3.40
2011,11,18,10,40,3.40
2011,11,18,10,41,3.40
2011,11,18,10,42,3.50
2011,11,18,10,43,3.50
2011,11,18,10,44,3.50
2011,11,18,10,45,3.50
2011,11,18,10,46,3.60
2011,11,18,10,47,3.60
2011,11,18,10,48,3.60
2011,11,18,10,49,3.70
2011,11,18,10,50,3.70
2011,11,18,10,51,3.70
2011,11,18,10,52,3.80
2011,11,18,10,53,3.80
2011,11,18,10,54,3.80
2011,11,18,10,55,3.80
2011,11,18,10,56,3.80
2011,11,18,10,57,3.80
2011,11,18,10,58,3.80
2011,11,18,10,59,3.80
2011,11,18,11,00,3.80
2011,11,18,11,01,3.90
2011,11,18,11,02,3.90
2011,11,18,11,03,3.90
2011,11,18,11,04,3.90
2011,11,18,11,05,3.90
2011,11,18,11,06,4.00
2011,11,18,11,07,4.00
2011,11,18,11,08,4.00
2011,11,18,11,09,4.10
2011,11,18,11,10,4.10
2011,11,18,11,11,4.10
2011,11,18,11,12,4.10
2011,11,18,11,13,4.10
2011,11,18,11,14,4.10
2011,11,18,11,15,4.10
2011,11,18,11,16,4.10
2011,11,18,11,17,4.20
2011,11,18,11,18,4.20
2011,11,18,11,19,4.20
2011,11,18,11,20,4.30
2011,11,18,11,21,4.30
2011,11,18,11,22,4.40
2011,11,18,11,23,4.40
2011,11,18,11,24,4.50
2011,11,18,11,25,4.50
2011,11,18,11,26,4.50
2011,11,18,11,27,4.50
2011,11,18,11,28,4.50
2011,11,18,11,29,4.50
2011,11,18,11,30,4.50
2011,11,18,11,31,4.40
2011,11,18,11,32,4.40
2011,11,18,11,33,4.40
2011,11,18,11,34,4.40
2011,11,18,11,35,4.30
2011,11,18,11,36,4.30
2011,11,18,11,37,4.30
2011,11,18,11,38,4.30
2011,11,18,11,39,4.20
2011,11,18,11,40,4.20
2011,11,18,11,41,4.20
2011,11,18,11,42,4.20
2011,11,18,11,43,4.20
2011,11,18,11,44,4.20
2011,11,18,11,45,4.20
2011,11,18,11,46,4.20
2011,11,18,11,47,4.20
2011,11,18,11,48,4.20
2011,11,18,11,49,4.20
2011,11,18,11,50,4.20
2011,11,18,11,51,4.30
2011,11,18,11,52,4.30
2011,11,18,11,53,4.30
2011,11,18,11,54,4.40
2011,11,18,11,55,4.40
2011,11,18,11,56,4.40
2011,11,18,11,57,4.50
2011,11,18,11,58,4.50
2011,11,18,11,59,4.60
2011,11,18,12,00,4.60
2011,11,18,12,01,4.70
2011,11,18,12,02,4.70
2011,11,18,12,03,4.70
2011,11,18,12,04,4.70
2011,11,18,12,05,4.70
2011,11,18,12,06,4.70
2011,11,18,12,07,4.70
2011,11,18,12,08,4.70
2011,11,18,12,09,4.70
2011,11,18,12,10,4.60
2011,11,18,12,11,4.60
2011,11,18,12,12,4.60
2011,11,18,12,13,4.50
2011,11,18,12,14,4.50
2011,11,18,12,15,4.50
2011,11,18,12,16,4.60
2011,11,18,12,17,4.50
2011,11,18,12,18,4.60
2011,11,18,12,19,4.60
2011,11,18,12,20,4.60
2011,11,18,12,21,4.60
2011,11,18,12,22,4.60
2011,11,18,12,23,4.70
2011,11,18,12,24,4.70
2011,11,18,12,25,4.70
2011,11,18,12,26,4.70
2011,11,18,12,27,4.80
2011,11,18,12,28,4.80
2011,11,18,12,29,4.80
2011,11,18,12,30,4.80
2011,11,18,12,31,4.80
2011,11,18,12,32,4.90
2011,11,18,12,33,4.90
2011,11,18,12,34,5.00
2011,11,18,12,35,5.00
2011,11,18,12,36,5.00
2011,11,18,12,37,5.10
2011,11,18,12,38,5.10
2011,11,18,12,39,5.10
2011,11,18,12,40,5.10
2011,11,18,12,41,5.20
2011,11,18,12,42,5.20
2011,11,18,12,43,5.20
2011,11,18,12,44,5.30
2011,11,18,12,45,5.30
2011,11,18,12,46,5.40
2011,11,18,12,47,5.40
2011,11,18,12,48,5.30
2011,11,18,12,49,5.30
2011,11,18,12,50,5.30
2011,11,18,12,51,5.20
2011,11,18,12,52,5.20
2011,11,18,12,53,5.20
2011,11,18,12,54,5.10
2011,11,18,12,55,5.10
2011,11,18,12,56,5.10
2011,11,18,12,57,5.00
2011,11,18,12,58,5.00
2011,11,18,12,59,5.10
2011,11,18,13,00,5.10
2011,11,18,13,01,5.00
2011,11,18,13,02,5.00
2011,11,18,13,03,5.00
2011,11,18,13,04,5.00
2011,11,18,13,05,5.00
2011,11,18,13,06,4.90
2011,11,18,13,07,4.90
2011,11,18,13,08,4.80
2011,11,18,13,09,4.70
2011,11,18,13,10,4.70
2011,11,18,13,11,4.70
2011,11,18,13,12,4.70
2011,11,18,13,13,4.70
2011,11,18,13,14,4.70
2011,11,18,13,15,4.70
2011,11,18,13,16,4.70
2011,11,18,13,17,4.70
2011,11,18,13,18,4.70
2011,11,18,13,19,4.60
2011,11,18,13,20,4.60
2011,11,18,13,21,4.60
2011,11,18,13,22,4.50
2011,11,18,13,23,4.50
2011,11,18,13,24,4.50
2011,11,18,13,25,4.40
2011,11,18,13,26,4.50
2011,11,18,13,27,4.50
2011,11,18,13,28,4.50
2011,11,18,13,29,4.50
2011,11,18,13,30,4.60
2011,11,18,13,31,4.60
2011,11,18,13,32,4.60
2011,11,18,13,33,4.60
2011,11,18,13,34,4.60
2011,11,18,13,35,4.60
2011,11,18,13,36,4.60
2011,11,18,13,37,4.60
2011,11,18,13,38,4.60
2011,11,18,13,39,4.60
2011,11,18,13,40,4.60
2011,11,18,13,41,4.60
2011,11,18,13,42,4.70
2011,11,18,13,43,4.70
2011,11,18,13,44,4.70
2011,11,18,13,45,4.70
2011,11,18,13,46,4.60
2011,11,18,13,47,4.60
2011,11,18,13,48,4.60
2011,11,18,13,49,4.60
2011,11,18,13,50,4.50
2011,11,18,13,51,4.50
2011,11,18,13,52,4.40
2011,11,18,13,53,4.40
2011,11,18,13,54,4.40
2011,11,18,13,55,4.40
2011,11,18,13,56,4.40
2011,11,18,13,57,4.40
2011,11,18,13,58,4.40
2011,11,18,13,59,4.40
2011,11,18,14,00,4.40
2011,11,18,14,01,4.40
2011,11,18,14,02,4.40
2011,11,18,14,03,4.50
2011,11,18,14,04,4.50
2011,11,18,14,05,4.50
2011,11,18,14,06,4.50
2011,11,18,14,07,4.60
2011,11,18,14,08,4.60
2011,11,18,14,09,4.60
2011,11,18,14,10,4.60
2011,11,18,14,11,4.60
2011,11,18,14,12,4.60
2011,11,18,14,13,4.70
2011,11,18,14,14,4.70
2011,11,18,14,15,4.70
2011,11,18,14,16,4.70
2011,11,18,14,17,4.70
2011,11,18,14,18,4.80
2011,11,18,14,19,4.80
2011,11,18,14,20,4.90
2011,11,18,14,21,4.90
2011,11,18,14,22,5.00
2011,11,18,14,23,5.00
2011,11,18,14,24,5.00
2011,11,18,14,25,5.10
2011,11,18,14,26,5.10
2011,11,18,14,27,5.10
2011,11,18,14,28,5.20
2011,11,18,14,29,5.30
2011,11,18,14,30,5.30
2011,11,18,14,31,5.30
2011,11,18,14,32,5.40
2011,11,18,14,33,5.40
2011,11,18,14,34,5.40
2011,11,18,14,35,5.40
2011,11,18,14,36,5.40
2011,11,18,14,37,5.40
2011,11,18,14,38,5.40
2011,11,18,14,39,5.30
2011,11,18,14,40,5.30
2011,11,18,14,41,5.30
2011,11,18,14,42,5.20
2011,11,18,14,43,5.20
2011,11,18,14,44,5.10
2011,11,18,14,45,5.10
2011,11,18,14,46,5.00
2011,11,18,14,47,4.90
2011,11,18,14,48,4.90
2011,11,18,14,49,4.80
2011,11,18,14,50,4.80
2011,11,18,14,51,4.70
2011,11,18,14,52,4.60
2011,11,18,14,53,4.60
2011,11,18,14,54,4.50
2011,11,18,14,55,4.40
2011,11,18,14,56,4.40
2011,11,18,14,57,4.30
2011,11,18,14,58,4.30
2011,11,18,14,59,4.30
2011,11,18,15,00,4.30
2011,11,18,15,01,4.30
2011,11,18,15,02,4.30
2011,11,18,15,03,4.30
2011,11,18,15,04,4.30
2011,11,18,15,05,4.20
2011,11,18,15,06,4.20
2011,11,18,15,07,4.20
2011,11,18,15,08,4.30
2011,11,18,15,09,4.30
2011,11,18,15,10,4.30
2011,11,18,15,11,4.30
2011,11,18,15,12,4.20
2011,11,18,15,13,4.20
2011,11,18,15,14,4.20
2011,11,18,15,15,4.20
2011,11,18,15,16,4.20
2011,11,18,15,17,4.20
2011,11,18,15,18,4.20
2011,11,18,15,19,4.20
2011,11,18,15,20,4.20
2011,11,18,15,21,4.20
2011,11,18,15,22,4.20
2011,11,18,15,23,4.20
2011,11,18,15,24,4.20
2011,11,18,15,25,4.20
2011,11,18,15,26,4.20
2011,11,18,15,27,4.10
2011,11,18,15,28,4.10
2011,11,18,15,29,4.10
2011,11,18,15,30,4.10
2011,11,18,15,31,4.10
2011,11,18,15,32,4.00
2011,11,18,15,33,4.00
2011,11,18,15,34,4.00
2011,11,18,15,35,3.90
2011,11,18,15,36,3.90
2011,11,18,15,37,3.90
2011,11,18,15,38,3.80
2011,11,18,15,39,3.80
2011,11,18,15,40,3.80
2011,11,18,15,41,3.70
2011,11,18,15,42,3.70
2011,11,18,15,43,3.70
2011,11,18,15,44,3.70
2011,11,18,15,45,3.60
2011,11,18,15,46,3.60
2011,11,18,15,47,3.60
2011,11,18,15,48,3.60
2011,11,18,15,49,3.60
2011,11,18,15,50,3.50
2011,11,18,15,51,3.50
2011,11,18,15,52,3.50
2011,11,18,15,53,3.50
2011,11,18,15,54,3.50
2011,11,18,15,55,3.50
2011,11,18,15,56,3.50
2011,11,18,15,57,3.50
2011,11,18,15,58,3.50
2011,11,18,15,59,3.50
2011,11,18,16,00,3.40
2011,11,18,16,01,3.40
2011,11,18,16,02,3.40
2011,11,18,16,03,3.40
2011,11,18,16,04,3.40
2011,11,18,16,05,3.40
2011,11,18,16,06,3.40
2011,11,18,16,07,3.40
2011,11,18,16,08,3.30
2011,11,18,16,09,3.30
2011,11,18,16,10,3.30
2011,11,18,16,11,3.30
2011,11,18,16,12,3.30
2011,11,18,16,13,3.20
2011,11,18,16,14,3.20
2011,11,18,16,15,3.20
2011,11,18,16,16,3.20
2011,11,18,16,17,3.10
2011,11,18,16,18,3.10
2011,11,18,16,19,3.10
2011,11,18,16,20,3.10
2011,11,18,16,21,3.00
2011,11,18,16,22,3.00
2011,11,18,16,23,2.90
2011,11,18,16,24,2.90
2011,11,18,16,25,2.90
2011,11,18,16,26,2.90
2011,11,18,16,27,2.80
2011,11,18,16,28,2.80
2011,11,18,16,29,2.80
2011,11,18,16,30,2.80
2011,11,18,16,31,2.80
2011,11,18,16,32,2.80
2011,11,18,16,33,2.70
2011,11,18,16,34,2.70
2011,11,18,16,35,2.70
2011,11,18,16,36,2.70
2011,11,18,16,37,2.60
2011,11,18,16,38,2.60
2011,11,18,16,39,2.60
2011,11,18,16,40,2.60
2011,11,18,16,41,2.60
2011,11,18,16,42,2.50
2011,11,18,16,43,2.50
2011,11,18,16,44,2.50
2011,11,18,16,45,2.50
2011,11,18,16,46,2.50
2011,11,18,16,47,2.50
2011,11,18,16,48,2.50
2011,11,18,16,49,2.50
2011,11,18,16,50,2.50
2011,11,18,16,51,2.50
2011,11,18,16,52,2.50
2011,11,18,16,53,2.40
2011,11,18,16,54,2.40
2011,11,18,16,55,2.40
2011,11,18,16,56,2.40
2011,11,18,16,57,2.40
2011,11,18,16,58,2.40
2011,11,18,16,59,2.40
2011,11,18,17,00,2.40
2011,11,18,17,01,2.30
2011,11,18,17,02,2.30
2011,11,18,17,03,2.30
2011,11,18,17,04,2.30
2011,11,18,17,05,2.30
2011,11,18,17,06,2.30
2011,11,18,17,07,2.30
2011,11,18,17,08,2.30
2011,11,18,17,09,2.20
2011,11,18,17,10,2.20
2011,11,18,17,11,2.20
2011,11,18,17,12,2.20
2011,11,18,17,13,2.20
2011,11,18,17,14,2.20
2011,11,18,17,15,2.20
2011,11,18,17,16,2.20
2011,11,18,17,17,2.20
2011,11,18,17,18,2.20
2011,11,18,17,19,2.20
2011,11,18,17,20,2.20
2011,11,18,17,21,2.20
2011,11,18,17,22,2.20
2011,11,18,17,23,2.20
2011,11,18,17,24,2.20
2011,11,18,17,25,2.10
2011,11,18,17,26,2.10
2011,11,18,17,27,2.10
2011,11,18,17,28,2.10
2011,11,18,17,29,2.10
2011,11,18,17,30,2.00
2011,11,18,17,31,2.00
2011,11,18,17,32,2.00
2011,11,18,17,33,2.00
2011,11,18,17,34,2.00
2011,11,18,17,35,2.00
2011,11,18,17,36,2.00
2011,11,18,17,37,2.00
2011,11,18,17,38,2.00
2011,11,18,17,39,2.00
2011,11,18,17,40,1.90
2011,11,18,17,41,1.90
2011,11,18,17,42,1.90
2011,11,18,17,43,1.90
2011,11,18,17,44,1.90
2011,11,18,17,45,1.90
2011,11,18,17,46,1.90
2011,11,18,17,47,1.90
2011,11,18,17,48,1.80
2011,11,18,17,49,1.80
2011,11,18,17,50,1.80
2011,11,18,17,51,1.80
2011,11,18,17,52,1.80
2011,11,18,17,53,1.80
2011,11,18,17,54,1.80
2011,11,18,17,55,1.80